FW9956 Weather Reports


time (UTC)temp
C
wind
direction
speed
KPH
gust
KPH
rain 1hr
cm
rain 24hr
cm
rain mn
cm
humidity
%
barometer
mb
20260506103807 14 144 1.6 1.6 0.00 0.00 0.00 76 1009.7
20260506103305 14 185 0.0 1.6 0.00 0.00 0.00 75 1009.7
20260506102802 14 179 3.2 4.8 0.00 0.00 0.00 75 1009.6
20260506102300 14 191 0.0 1.6 0.00 0.00 0.00 76 1009.6
20260506101757 15 205 1.6 3.2 0.00 0.00 0.00 75 1009.4
20260506101253 15 191 0.0 1.6 0.00 0.00 0.00 76 1009.1
20260506100751 15 189 0.0 1.6 0.00 0.00 0.00 76 1009.4
20260506100249 14 169 3.2 4.8 0.00 0.00 0.00 75 1009.2
20260506095747 14 193 1.6 1.6 0.00 0.00 0.00 75 1009.1
20260506095244 15 161 0.0 1.6 0.00 0.00 0.00 75 1008.8
20260506094740 15 212 1.6 1.6 0.00 0.00 0.00 75 1009.0
20260506094239 15 203 1.6 1.6 0.00 0.00 0.00 76 1009.0
20260506093737 15 349 3.2 4.8 0.00 0.00 0.00 75 1008.8
20260506093234 15 182 1.6 3.2 0.00 0.00 0.00 75 1008.9
20260506092731 15 195 1.6 3.2 0.00 0.00 0.00 75 1009.0
20260506092229 15 192 0.0 0.0 0.00 0.00 0.00 75 1008.9
20260506091726 15 91 1.6 4.8 0.00 0.00 0.00 75 1008.7
20260506091224 15 168 1.6 3.2 0.00 0.00 0.00 75 1008.6
20260506090721 15 164 1.6 1.6 0.00 0.00 0.00 75 1008.9
20260506090218 15 189 3.2 4.8 0.00 0.00 0.00 75 1008.7
20260506085715 15 189 0.0 1.6 0.00 0.00 0.00 75 1008.6
20260506085211 15 205 3.2 3.2 0.00 0.00 0.00 76 1008.6
20260506084708 15 191 1.6 1.6 0.00 0.00 0.00 75 1008.5
20260506084204 15 186 0.0 1.6 0.00 0.00 0.00 75 1008.5
20260506083701 15 174 3.2 4.8 0.00 0.00 0.00 76 1008.6
20260506083159 15 212 0.0 1.6 0.00 0.00 0.00 76 1008.5
20260506082656 15 186 0.0 0.0 0.00 0.00 0.00 77 1008.5
20260506082151 15 167 0.0 1.6 0.00 0.00 0.00 76 1008.6
20260506081649 15 195 0.0 0.0 0.00 0.00 0.00 76 1008.4
20260506081147 15 187 1.6 3.2 0.00 0.00 0.00 76 1008.3
20260506080644 15 132 0.0 0.0 0.00 0.00 0.00 76 1008.5
20260506080141 15 191 0.0 0.0 0.00 0.00 0.00 75 1008.2
20260506073125 15 216 1.6 3.2 0.00 0.00 0.00 77 1008.0
20260506072621 15 192 0.0 1.6 0.00 0.00 0.00 77 1007.9
20260506072119 16 195 1.6 3.2 0.00 0.00 0.00 77 1008.0
20260506071617 16 102 1.6 3.2 0.00 0.00 0.00 77 1008.0
20260506071114 16 183 1.6 1.6 0.00 0.00 0.00 77 1008.2
20260506070611 16 191 3.2 3.2 0.00 0.00 0.00 77 1008.2
20260506070108 16 115 0.0 1.6 0.00 0.00 0.00 77 1008.3
20260506062045 16 188 0.0 1.6 0.00 0.00 0.00 77 1008.0
20260506061541 16 194 0.0 1.6 0.00 0.00 0.00 78 1008.0
20260506061039 16 139 1.6 1.6 0.00 0.00 0.00 78 1008.0
20260506060537 16 141 0.0 1.6 0.00 0.00 0.00 77 1008.2
20260506051006 17 199 1.6 3.2 0.00 0.00 0.00 79 1008.0
20260506050504 17 159 1.6 3.2 0.00 0.00 0.00 79 1008.0
20260506044954 17 208 1.6 3.2 0.00 0.00 0.00 79 1007.9
20260506044452 17 133 0.0 1.6 0.00 0.00 0.00 79 1008.0
20260506043948 17 205 3.2 3.2 0.00 0.00 0.00 78 1008.1
20260506043446 18 210 0.0 1.6 0.00 0.00 0.00 78 1008.1
20260506042943 18 191 1.6 3.2 0.00 0.00 0.00 78 1008.3
20260506042443 18 193 1.6 1.6 0.00 0.00 0.00 78 1008.0
20260506041940 18 191 3.2 3.2 0.00 0.00 0.00 78 1007.8
20260506041438 18 198 3.2 3.2 0.00 0.00 0.00 78 1007.8
20260506040935 18 208 3.2 3.2 0.00 0.00 0.00 78 1007.8
20260506040433 18 229 4.8 8.0 0.00 0.00 0.00 78 1007.9
20260506035929 18 217 3.2 3.2 0.00 0.00 0.00 78 1007.6
20260506035426 18 329 3.2 11.3 0.00 0.00 0.00 78 1007.3
20260506034923 18 190 4.8 8.0 0.00 0.00 0.00 78 1007.4
20260506034420 18 183 4.8 9.7 0.00 0.00 0.00 77 1007.1
20260506033917 19 160 0.0 1.6 0.00 0.00 0.00 77 1007.4
20260506033414 19 200 0.0 0.0 0.00 0.00 0.00 77 1007.0
20260506032911 20 191 1.6 3.2 0.00 0.00 0.00 77 1007.0
20260506032408 20 188 1.6 1.6 0.00 0.00 0.00 77 1006.8
20260506031905 20 201 1.6 3.2 0.00 0.00 0.00 77 1006.9
20260506031402 20 189 0.0 1.6 0.00 0.00 0.00 76 1006.7
20260506030859 20 48 3.2 3.2 0.00 0.00 0.00 76 1006.6
20260506030358 21 125 1.6 1.6 0.00 0.00 0.00 76 1006.3
20260506025854 21 175 0.0 0.0 0.00 0.00 0.00 75 1006.6
20260506025351 21 186 1.6 1.6 0.00 0.00 0.00 75 1006.4
20260506024848 21 126 1.6 3.2 0.00 0.00 0.00 75 1006.5
20260506024344 21 186 3.2 8.0 0.00 0.00 0.00 75 1006.1
20260506023840 21 144 0.0 0.0 0.00 0.00 0.00 75 1006.3
20260506023338 21 187 3.2 3.2 0.00 0.00 0.00 74 1006.0
20260506022834 21 80 1.6 3.2 0.00 0.00 0.00 74 1005.5
20260506022332 21 189 0.0 0.0 0.00 0.00 0.00 73 1005.6
20260506021830 21 197 0.0 0.0 0.00 0.00 0.00 73 1005.6
20260506021327 21 195 0.0 1.6 0.00 0.00 0.00 73 1005.5
20260506020823 21 203 3.2 3.2 0.00 0.00 0.00 73 1005.6
20260506020321 21 223 1.6 1.6 0.00 0.00 0.00 72 1005.0
20260506015818 22 197 0.0 0.0 0.00 0.00 0.00 73 1004.9
20260506015316 22 188 1.6 1.6 0.00 0.00 0.00 72 1004.5
20260506014812 22 185 1.6 3.2 0.00 0.00 0.00 72 1004.7
20260506014309 22 190 0.0 0.0 0.00 0.00 0.00 72 1004.9
20260506013806 22 166 0.0 1.6 0.00 0.00 0.00 72 1004.7
20260506013303 22 200 0.0 1.6 0.00 0.00 0.00 72 1004.5
20260506012800 22 198 3.2 4.8 0.00 0.00 0.00 71 1004.4
20260506012256 22 175 1.6 1.6 0.00 0.00 0.00 70 1004.7
20260506011753 22 176 0.0 0.0 0.00 0.00 0.00 70 1004.3
20260506011249 22 189 0.0 1.6 0.00 0.00 0.00 70 1004.3
20260506010748 23 186 0.0 0.0 0.00 0.00 0.00 70 1004.7
20260506010245 23 216 3.2 4.8 0.00 0.00 0.00 70 1004.6
20260506005743 23 193 0.0 0.0 0.00 0.00 0.00 70 1004.5
20260506005239 23 237 3.2 4.8 0.00 0.00 0.00 70 1004.3
20260506004735 23 205 0.0 1.6 0.00 0.00 0.00 69 1004.0
20260506004233 23 156 0.0 1.6 0.00 0.00 0.00 68 1003.9
20260506003729 23 61 1.6 3.2 0.00 0.00 0.00 67 1004.1
20260506003226 23 196 0.0 1.6 0.00 0.00 0.00 67 1003.9
20260506002721 24 211 3.2 4.8 0.00 0.00 0.00 67 1003.7
20260506002218 25 226 1.6 3.2 0.00 0.00 0.00 68 1003.4
20260506001714 25 279 1.6 3.2 0.00 0.00 0.00 67 1003.7
20260506001211 25 191 0.0 1.6 0.00 0.00 0.00 67 1003.5
20260506000708 25 193 3.2 4.8 0.00 0.00 0.00 66 1003.5
20260506000206 26 44 4.8 11.3 0.00 0.00 0.00 65 1003.2
20260505235703 26 188 3.2 4.8 0.00 0.00 0.00 65 1003.0
20260505235201 26 6 3.2 8.0 0.00 0.00 0.00 65 1002.9
20260505234657 26 105 1.6 1.6 0.00 0.00 0.00 65 1003.0
20260505234155 27 192 0.0 1.6 0.00 0.00 0.00 64 1002.8
20260505233651 27 182 0.0 1.6 0.00 0.00 0.00 63 1002.7
20260505233149 28 187 1.6 3.2 0.00 0.00 0.00 61 1002.7
20260505232646 29 185 3.2 4.8 0.00 0.00 0.00 57 1002.8
20260505232144 29 183 3.2 4.8 0.00 0.00 0.00 56 1002.5
20260505231640 30 198 1.6 3.2 0.00 0.00 0.00 55 1002.4
20260505231139 30 203 1.6 3.2 0.00 0.00 0.00 54 1002.5
20260505230636 30 197 1.6 1.6 0.00 0.00 0.00 53 1002.5
20260505230132 30 13 1.6 1.6 0.00 0.00 0.00 52 1002.4
20260505225629 31 207 0.0 0.0 0.00 0.00 0.00 51 1002.3
20260505225125 31 178 0.0 0.0 0.00 0.00 0.00 51 1002.0
20260505224622 31 190 1.6 3.2 0.00 0.00 0.00 50 1002.0
20260505224119 31 88 1.6 3.2 0.00 0.00 0.00 49 1001.9
20260505223616 31 187 3.2 4.8 0.00 0.00 0.00 49 1001.8
20260505223113 31 201 1.6 3.2 0.00 0.00 0.00 49 1001.9
20260505222609 32 75 3.2 4.8 0.00 0.00 0.00 48 1001.6
20260505222105 33 207 1.6 4.8 0.00 0.00 0.00 49 1001.4
20260505221602 33 221 4.8 8.0 0.00 0.00 0.00 48 1001.3
20260505221058 33 195 3.2 4.8 0.00 0.00 0.00 48 1001.1
20260505220556 33 204 0.0 1.6 0.00 0.00 0.00 50 1001.4
20260505220054 34 183 1.6 1.6 0.00 0.00 0.00 48 1001.4
20260505215552 33 201 0.0 1.6 0.00 0.00 0.00 49 1001.4
20260505215049 33 212 4.8 9.7 0.00 0.00 0.00 49 1001.5
20260505214547 33 193 1.6 1.6 0.00 0.00 0.00 48 1001.4
20260505214044 33 202 1.6 3.2 0.00 0.00 0.00 49 1001.7
20260505213542 33 244 4.8 9.7 0.00 0.00 0.00 49 1001.4
20260505213037 33 187 1.6 3.2 0.00 0.00 0.00 52 1001.5
20260505212534 33 189 0.0 1.6 0.00 0.00 0.00 50 1001.7
20260505212031 33 148 4.8 9.7 0.00 0.00 0.00 53 1001.5
20260505211529 33 189 3.2 3.2 0.00 0.00 0.00 53 1001.8
20260505211025 33 183 4.8 8.0 0.00 0.00 0.00 52 1001.8
20260505210522 33 208 4.8 9.7 0.00 0.00 0.00 52 1002.0
20260505210019 32 189 3.2 4.8 0.00 0.00 0.00 54 1001.9
20260505205517 33 208 6.4 11.3 0.00 0.00 0.00 53 1001.8
20260505205014 32 199 3.2 4.8 0.00 0.00 0.00 56 1001.9
20260505204512 32 230 0.0 1.6 0.00 0.00 0.00 55 1002.0
20260505204009 32 209 3.2 8.0 0.00 0.00 0.00 56 1002.3
20260505203505 32 199 1.6 3.2 0.00 0.00 0.00 57 1002.4
20260505203001 31 106 3.2 4.8 0.00 0.00 0.00 59 1002.5
20260505202458 32 173 8.0 11.3 0.00 0.00 0.00 58 1002.6
20260505201954 31 217 1.6 3.2 0.00 0.00 0.00 60 1002.6
20260505201451 31 199 4.8 8.0 0.00 0.00 0.00 59 1002.6
20260505200949 31 189 1.6 3.2 0.00 0.00 0.00 60 1002.6
20260505200447 31 219 4.8 4.8 0.00 0.00 0.00 58 1002.8
20260505195942 31 233 3.2 8.0 0.00 0.00 0.00 59 1002.6
20260505195439 31 187 9.7 11.3 0.00 0.00 0.00 59 1002.6
20260505194937 31 209 4.8 9.7 0.00 0.00 0.00 61 1002.8
20260505194434 31 164 6.4 12.9 0.00 0.00 0.00 60 1002.7
20260505193934 31 128 3.2 3.2 0.00 0.00 0.00 60 1002.8
20260505193432 31 153 6.4 9.7 0.00 0.00 0.00 61 1002.8
20260505192929 31 183 6.4 11.3 0.00 0.00 0.00 61 1002.6
20260505192427 31 139 8.0 11.3 0.00 0.00 0.00 61 1002.6
20260505191925 31 214 6.4 11.3 0.00 0.00 0.00 60 1002.8
20260505191423 30 267 11.3 16.1 0.00 0.00 0.00 61 1002.7
20260505190920 30 276 6.4 11.3 0.00 0.00 0.00 62 1002.7
20260505190415 30 210 3.2 3.2 0.00 0.00 0.00 62 1002.8
20260505185910 29 192 1.6 3.2 0.00 0.00 0.00 64 1002.9
20260505185408 30 115 3.2 8.0 0.00 0.00 0.00 64 1002.7
20260505184904 30 255 8.0 9.7 0.00 0.00 0.00 64 1002.9
20260505184401 30 207 4.8 4.8 0.00 0.00 0.00 64 1003.2
20260505183858 29 232 4.8 11.3 0.00 0.00 0.00 65 1003.0
20260505183355 29 224 4.8 9.7 0.00 0.00 0.00 65 1003.1
20260505182851 29 228 6.4 11.3 0.00 0.00 0.00 66 1003.1
20260505182348 29 234 6.4 11.3 0.00 0.00 0.00 65 1003.2
20260505181845 29 239 8.0 9.7 0.00 0.00 0.00 65 1003.3
20260505181342 28 220 3.2 4.8 0.00 0.00 0.00 65 1003.2
20260505180839 28 207 8.0 11.3 0.00 0.00 0.00 64 1003.2
20260505180335 28 207 3.2 8.0 0.00 0.00 0.00 66 1003.1
20260505175832 28 257 6.4 8.0 0.00 0.00 0.00 67 1003.2
20260505175328 28 206 8.0 11.3 0.00 0.00 0.00 66 1003.1
20260505174825 28 204 11.3 20.9 0.00 0.00 0.00 65 1003.0
20260505174322 28 214 6.4 9.7 0.00 0.00 0.00 65 1003.2
20260505173818 28 277 9.7 16.1 0.00 0.00 0.00 67 1003.3
20260505173315 28 217 6.4 9.7 0.00 0.00 0.00 68 1003.2
20260505172812 28 202 6.4 11.3 0.00 0.00 0.00 68 1003.3
20260505172309 28 191 6.4 12.9 0.00 0.00 0.00 68 1003.5
20260505171804 28 212 12.9 17.7 0.00 0.00 0.00 68 1003.2
20260505171301 28 153 8.0 11.3 0.00 0.00 0.00 67 1003.2
20260505170757 28 208 8.0 11.3 0.00 0.00 0.00 69 1003.2
20260505170255 28 199 8.0 14.5 0.00 0.00 0.00 69 1003.3
20260505165750 27 133 12.9 24.1 0.00 0.00 0.00 70 1003.1
20260505165246 27 119 6.4 9.7 0.00 0.00 0.00 70 1003.3
20260505164742 27 257 8.0 9.7 0.00 0.00 0.00 71 1003.4
20260505164239 27 164 8.0 12.9 0.00 0.00 0.00 71 1003.3
20260505163737 27 241 4.8 8.0 0.00 0.00 0.00 71 1003.3
20260505163236 27 260 8.0 12.9 0.00 0.00 0.00 72 1003.1
20260505162732 27 61 4.8 11.3 0.00 0.00 0.00 72 1003.3
20260505162229 27 109 4.8 8.0 0.00 0.00 0.00 73 1003.3
20260505161726 27 108 1.6 4.8 0.00 0.00 0.00 73 1003.2
20260505161224 26 138 6.4 9.7 0.00 0.00 0.00 74 1003.2
20260505160721 26 170 8.0 14.5 0.00 0.00 0.00 74 1002.9
20260505160219 26 149 4.8 8.0 0.00 0.00 0.00 75 1003.3
20260505153158 26 140 8.0 11.3 0.00 0.00 0.00 76 1003.0
20260505152655 25 169 3.2 8.0 0.00 0.00 0.00 77 1002.9
20260505152150 25 173 6.4 11.3 0.00 0.00 0.00 77 1003.1
20260505151646 25 141 4.8 4.8 0.00 0.00 0.00 78 1003.0
20260505151143 25 216 11.3 14.5 0.00 0.00 0.00 78 1003.1
20260505150639 25 214 1.6 3.2 0.00 0.00 0.00 79 1003.2
20260505150136 25 103 9.7 14.5 0.00 0.00 0.00 80 1003.2
20260505140605 23 188 3.2 4.8 0.00 0.00 0.00 84 1002.8
20260505125019 21 166 8.0 12.9 0.00 0.00 0.00 87 1002.6
20260505124515 21 163 9.7 12.9 0.00 0.00 0.00 88 1002.6
20260505124012 21 358 3.2 4.8 0.00 0.00 0.00 88 1002.5
20260505123508 21 160 4.8 4.8 0.00 0.00 0.00 88 1002.5
20260505123004 21 162 9.7 14.5 0.00 0.00 0.00 88 1002.7
20260505122502 21 212 4.8 8.0 0.00 0.00 0.00 88 1002.6
20260505121958 21 167 1.6 1.6 0.00 0.00 0.00 88 1002.2
20260505121455 21 191 3.2 3.2 0.00 0.00 0.00 88 1002.2
20260505120951 21 212 4.8 4.8 0.00 0.00 0.00 88 1001.9
20260505120448 21 140 8.0 9.7 0.00 0.00 0.00 88 1002.0
20260505115947 21 199 3.2 4.8 0.00 0.00 0.00 88 1002.3
20260505115443 21 184 4.8 8.0 0.00 0.00 0.00 88 1002.4
20260505114941 21 187 4.8 8.0 0.00 0.00 0.00 88 1002.0
20260505114437 21 193 4.8 4.8 0.00 0.00 0.00 88 1002.2
20260505113934 21 204 4.8 4.8 0.00 0.00 0.00 88 1001.9
20260505113430 21 103 1.6 3.2 0.00 0.00 0.00 88 1002.0
20260505112926 21 204 4.8 16.1 0.00 0.00 0.00 87 1002.2
20260505112424 21 197 1.6 1.6 0.00 0.00 0.00 87 1002.2
20260505111920 21 203 4.8 4.8 0.00 0.00 0.00 87 1001.9
20260505111415 21 72 4.8 9.7 0.00 0.00 0.00 87 1001.9
20260505110912 21 172 3.2 4.8 0.00 0.00 0.00 87 1001.7
20260505110409 21 237 3.2 4.8 0.00 0.00 0.00 87 1001.8